Date,TemperatureHighF,TemperatureAvgF,TemperatureLowF,DewpointHighF,DewpointAvgF,DewpointLowF,HumidityHigh,HumidityAvg,HumidityLow,PressureMaxIn,PressureMinIn,WindSpeedMaxMPH,WindSpeedAvgMPH,GustSpeedMaxMPH,PrecipitationSumIn
2013-1-1,48,46,43,46,39,30,93,78,57,30.10,29.91,5,1,0,0.23
2013-1-2,47,42,39,45,39,32,94,87,72,30.18,29.91,3,0,0,0.15
2013-1-3,41,37,28,33,30,25,89,75,62,30.27,30.14,1,0,0,0.00
2013-1-4,49,37,28,27,24,22,90,62,40,30.33,30.21,6,2,0,0.00
2013-1-5,49,36,26,29,24,20,80,62,44,30.40,30.28,2,0,0,0.00
2013-1-6,52,46,40,39,36,31,83,66,59,30.19,30.04,4,0,0,0.02
2013-1-7,50,41,32,33,30,26,83,66,52,30.43,30.19,4,0,0,0.00
2013-1-8,51,47,44,42,41,39,86,80,73,30.41,30.38,0,0,0,0.00
2013-1-9,64,51,36,54,45,34,93,81,67,30.45,30.35,6,0,0,0.00
2013-1-10,59,52,44,49,41,37,92,70,47,30.52,30.40,2,0,0,0.00
2013-1-11,48,43,40,44,40,38,94,90,70,30.40,30.15,1,0,0,0.12
2013-1-12,51,48,45,50,47,44,95,95,94,30.17,30.11,2,0,0,0.00
2013-1-13,73,69,62,62,60,58,85,75,68,30.04,30.00,9,3,0,0.01
2013-1-14,61,57,51,60,55,49,94,94,93,30.16,30.08,6,1,0,0.80
2013-1-15,51,42,40,49,41,38,94,93,92,30.22,30.06,5,1,0,0.20
2013-1-16,49,43,38,47,42,36,95,95,94,30.08,29.95,2,0,0,0.51
2013-1-17,49,42,33,48,41,31,95,94,92,30.10,29.89,7,1,0,1.53
2013-1-18,42,35,28,31,29,26,93,78,55,30.53,30.47,2,0,0,0.50
2013-1-19,51,37,25,33,28,23,93,73,48,30.50,30.15,5,1,0,0.04
2013-1-20,60,46,34,39,32,27,79,59,39,30.15,29.99,7,2,0,0.00
2013-1-21,57,42,28,36,28,19,92,62,37,30.07,29.86,11,2,0,0.01
2013-1-22,39,31,24,19,7,2,50,37,28,30.28,29.97,7,2,0,0.00
2013-1-23,41,28,18,21,12,4,76,52,42,30.37,30.17,7,2,0,0.00
2013-1-24,36,30,23,24,12,6,77,48,37,30.52,30.03,7,2,0,0.00
2013-1-25,23,21,20,10,8,6,64,57,48,30.53,30.48,0,0,0,0.00
2013-1-26,39,34,28,30,28,23,91,77,68,30.42,30.22,2,0,0,0.10
2013-1-27,41,33,24,29,25,18,80,72,61,30.60,30.41,2,0,0,0.01
2013-1-28,49,42,34,43,35,27,89,79,65,30.49,30.22,6,2,0,0.03
2013-1-29,72,56,45,58,49,42,94,80,61,30.23,30.03,7,2,0,0.00
2013-1-30,72,67,58,63,60,56,92,81,69,29.58,29.34,10,7,0,1.25
2013-1-31,58,46,36,56,37,22,91,72,54,29.98,29.38,10,5,0,0.03